Other Public Products
Issued by NWS Charleston, SC

Current Version | Previous Version | Graphics & Text | Print | Product List | Glossary On
Versions: 1 2 3 4 5 6 7 8 9 10 11 12 13 14 15 16 17 18 19 20 21 22 23 24 25 26 27 28 29 30 31 32 33 34 35 36 37 38 39 40 41 42 43 44 45 46 47 48 49 50
000
FPUS82 KCHS 231027
OPUCHS

TEST...KCHS/KSAV Gateway Observations...TEST
National Weather Service Charleston SC
600 AM EDT MON APR 23 2018

NOTE: "fair" indicates few or no clouds below 12,000 feet with no
significant weather and/or obstructions to visibility.

SCZ050-WAZ558-NCZ071-TXZ119-213-PAZ071-DCZ001-FLZ074-172-MI076-
NYZ176-178-MAZ016-IL014-TNZ027-NJZ106-GAZ044-MD014-231100-

...Gateway Observations for Charleston International...

CITY           SKY/WX    TMP DP  RH WIND       PRES   REMARKS
Chas Airport   MOCLDY    65  60  84 E12       30.13F
Seattle        FAIR      46  37  71 NE3       30.34S
Charlotte      CLOUDY    58  47  66 E12       30.22F
Dallas DFW     CLEAR     52  47  83 N9        30.02R
Dallas Love    PTCLDY    53  47  79 N6        30.03R
Philladelphia  FAIR      43  36  76 SW5       30.43S
Wash National  MOCLDY    52  39  61 CALM      30.41S
Baltimore      MOCLDY    47  40  76 CALM      30.41R
Miami          CLOUDY    77  73  87 S15G22    30.01R
Detroit        FAIR      45  26  47 NE6       30.25S
Newark         FAIR      41  31  67 N6        30.44R
Laguardia      FAIR      45  39  79 E3        30.44R
J F K          FAIR      41  35  79 N6        30.44S
Boston Logan   FAIR      44  20  38 NW6       30.46R
Ft. Lauderdale LGT RAIN  77  73  87 SE10      30.00R
Chicago O`Hare MOCLDY    43  28  55 N8        30.21R
Chicago Midway MOCLDY    46  26  45 NE8       30.21R
Houston Bush   FAIR      51  50  96 CALM      30.02S
Houston Hobby  FAIR      54  52  93 CALM      30.01S
Nashville      CLOUDY    58  56  93 SE14      29.89R
Atlanta        LGT RAIN  59  59 100 N3        29.96S FOG

$$

GAZ044-118-TXZ119-213-NCZ071-DCZ001-MDZ014-506-PAZ021-071-NJZ106-
NYZ176-178-MAZ106-OHZ011-021-055-MIZ076-KYZ091-ILZ014-INZ047-
MNZ060-ONZ431-231100-

...Gateway Observations for Savannah International...

CITY           SKY/WX    TMP DP  RH WIND       PRES   REMARKS
Savannah Arpt  CLOUDY    66  63  90 E16G26    30.04F
Atlanta        LGT RAIN  59  59 100 N3        29.96S FOG
Charlotte      CLOUDY    58  47  66 E12       30.22F
Dallas DFW     CLEAR     52  47  83 N9        30.02R
Houston Bush   FAIR      51  50  96 CALM      30.02S
Wash National  MOCLDY    52  39  61 CALM      30.41S
Wash Dulles    MOCLDY    42  37  82 CALM      30.40R
Baltimore      MOCLDY    47  40  76 CALM      30.41R
Philadelphia   FAIR      43  36  76 SW5       30.43S
Newark         FAIR      41  31  67 N6        30.44R
Laguardia      FAIR      45  39  79 E3        30.44R
J F K          FAIR      41  35  79 N6        30.44S
Boston         FAIR      44  20  38 NW6       30.46R
Pittsburg      FAIR      50  37  61 E7        30.27R
Akron          FAIR      49  35  58 E7        30.24S
Cleveland      FAIR      52  34  50 SE13      30.25S
Cincinnati     CLOUDY    54  33  45 E7        30.07S
Columbus       FAIR      45  35  67 E8        30.16R
Detroit        FAIR      45  26  47 NE6       30.25S
Chicago O`Hare MOCLDY    43  28  55 N8        30.21R
Minneapolis    FAIR      43  36  76 CALM      30.24S
Indianapolis   CLOUDY    51  30  44 NE13      30.08S
Toronto Canada CLEAR     37  25  60 N6        30.38S WCI  33

$$




USA.gov is the U.S. government's official web portal to all federal, state and local government web resources and services.